This is the latest recevied weather packets stored in our database for station/object KC0OOO-WX. If no packets are shown the sender has not sent any weather packets the latest 10 day(s).
| Time | Temp. | Humidity | Pressure | Rain* | Wind** | Luminosity | Snow |
|---|---|---|---|---|---|---|---|
| 1777945862 | 13.89° C | 32% | 1014.6 hPa | 0 mm | - | - | - |
| 1777945262 | 14.44° C | 30% | 1014.6 hPa | 0 mm | - | - | - |
| 1777944662 | 14.44° C | 27% | 1014.6 hPa | 0 mm | - | - | - |
| 1777944062 | 15° C | 26% | 1014.6 hPa | 0 mm | - | - | - |
| 1777943462 | 15° C | 28% | 1014.9 hPa | 0 mm | - | - | - |
| 1777942832 | 15° C | 26% | 1014.9 hPa | 0 mm | - | - | - |
| 1777942232 | 15.56° C | 26% | 1015.2 hPa | 0 mm | - | - | - |
| 1777941632 | 15.56° C | 26% | 1015.2 hPa | 0 mm | - | - | - |
| 1777941032 | 16.11° C | 24% | 1015.2 hPa | 0 mm | - | - | - |
| 1777940432 | 16.11° C | 24% | 1015.2 hPa | 0 mm | - | - | - |
| 1777939832 | 16.11° C | 25% | 1015.2 hPa | 0 mm | - | - | - |
| 1777939231 | 16.67° C | 26% | 1015.2 hPa | 0 mm | - | - | - |
| 1777938632 | 17.22° C | 24% | 1015.2 hPa | 0 mm | - | - | - |
| 1777938032 | 17.78° C | 24% | 1015.2 hPa | 0 mm | - | - | - |
| 1777937431 | 17.22° C | 25% | 1014.9 hPa | 0 mm | - | - | - |
| 1777936831 | 17.22° C | 26% | 1015.2 hPa | 0 mm | - | - | - |
| 1777936231 | 17.22° C | 26% | 1015.2 hPa | 0 mm | - | - | - |
| 1777935631 | 16.67° C | 26% | 1015.2 hPa | 0 mm | - | - | - |
| 1777935031 | 17.22° C | 28% | 1015.2 hPa | 0 mm | - | - | - |
| 1777934431 | 17.22° C | 27% | 1015.2 hPa | 0 mm | - | - | - |
| 1777933831 | 17.22° C | 27% | 1015.2 hPa | 0 mm | - | - | - |
| 1777933231 | 17.22° C | 27% | 1015.2 hPa | 0 mm | - | - | - |
| 1777932631 | 17.78° C | 25% | 1015.6 hPa | 0 mm | - | - | - |
| 1777932031 | 18.89° C | 26% | 1015.6 hPa | 0 mm | - | - | - |
| 1777931431 | 17.78° C | 29% | 1015.9 hPa | 0 mm | - | - | - |
* Rain latest hour (hover to see other rain measurements)
** Current wind speed in m/s (hover to see current wind gust speed)